Location: Cran-Gévrier
(45.9039°N, 6.1012°E)
Time: 01:14:16
(UTC+00:00)

STRAND 1 - Pass Details

Date: 17 December 2023
Orbit: 766 x 778 km, 98.4° (Epoch: 03 March)

Event Time Altitude Azimuth Distance (km) Brightness Sun altitude
Exits shadow 17:43:54 34° 66° (ENE) 1,250 ? -18.6°
Maximum altitude 17:45:06 39° 97° (E) 1,141 ? -18.8°
Drops below altitude 10° 17:49:51 10° 166° (SSE) 2,309 ? -19.6°
Sets 17:52:18 0° 174° (S) 3,233 ? -20.0°
